Wind_Speed
10 10 10 10 10 10 9 9 9 9 9 8 8 9 9 9 9 9 9 9 10 10 10 10 10 10 10 11 11 11 11 11 11 9 8 11 12 9 10 10 10 10 9 9 9 9 9 8 8 7 7 7 8 9 9 9 10 11 12 13 12 8 7 7 9 12 15 16 15 15 18 20 21 22 24 25 23 22 22 22 21 22 22 21 18 17 17 17
11 11 11 11 11 11 11 11 11 11 10 10 10 10 11 11 11 11 11 11 11 11 12 12 12 12 12 12 12 13 13 13 12 11 12 14 14 12 13 12 12 12 11 11 11 11 11 11 11 10 10 10 10 10 11 11 12 12 14 16 13 8 8 9 10 12 16 17 17 18 19 21 21 22 25 25 24 23 23 22 21 22 22 21 20 19 19 18
13 13 12 12 12 12 12 12 12 12 12 12 12 12 12 12 13 13 13 13 13 13 13 13 13 13 13 13 14 14 13 14 13 13 14 15 15 15 15 15 15 14 14 13 13 14 14 14 13 12 12 11 12 13 13 13 13 14 16 18 11 8 11 11 11 13 16 18 19 19 20 22 21 23 26 26 25 25 23 20 20 21 19 20 21 21 21 20
14 14 14 14 14 14 14 14 14 14 14 14 14 14 14 14 15 15 15 15 15 15 15 15 15 15 15 15 15 14 15 14 13 14 14 15 16 17 17 16 16 16 16 15 15 16 15 16 16 15 15 13 15 17 15 13 14 17 19 19 13 13 16 12 12 15 16 19 20 20 21 22 22 25 26 26 28 24 19 18 19 21 20 20 23 23 23 23
16 16 15 15 15 15 15 15 15 15 15 15 15 15 15 16 16 16 17 17 17 17 17 17 17 17 16 16 16 16 15 14 13 14 13 12 14 16 17 17 17 18 17 17 17 17 17 18 18 18 18 16 16 18 16 14 16 21 21 19 16 17 19 14 13 16 17 19 21 21 23 23 23 26 26 26 28 19 15 19 21 22 22 22 24 25 26 25
17 17 17 17 17 17 17 17 17 17 17 17 17 17 17 17 17 18 18 18 19 18 19 19 19 19 18 18 18 17 17 14 12 13 12 11 13 14 15 15 16 18 19 19 18 19 19 20 20 20 20 19 19 20 17 16 19 24 24 21 18 19 20 17 15 17 18 20 21 23 25 24 25 27 27 28 27 17 18 22 22 22 24 25 27 27 27 26
18 18 18 18 18 18 18 18 18 18 18 18 19 19 19 19 19 19 20 20 20 20 20 20 21 21 20 20 19 19 19 16 14 16 16 15 16 16 17 17 18 19 20 20 20 21 21 22 22 21 22 22 21 21 20 20 22 26 26 23 22 22 22 19 19 21 21 21 22 24 27 26 26 28 30 29 22 16 18 21 21 21 24 26 28 28 27 26
19 19 19 19 20 20 19 20 20 20 20 20 20 20 20 20 21 21 21 22 22 22 22 22 23 22 22 22 21 22 21 18 17 19 19 19 18 18 19 20 20 21 22 23 23 23 23 24 22 22 24 23 23 23 22 22 24 28 27 25 25 24 23 22 24 24 24 24 24 26 28 26 26 29 31 27 18 15 17 19 19 20 23 26 27 27 27 26
21 21 21 21 21 21 21 21 21 21 21 21 21 21 22 22 22 22 22 23 23 24 24 24 25 24 25 24 24 24 20 17 18 19 19 19 19 19 19 20 21 22 22 23 23 24 24 24 23 23 25 25 25 25 24 25 27 28 28 28 28 27 25 24 27 27 26 27 27 29 29 26 26 29 31 25 18 16 18 21 20 21 24 25 26 26 26 26
23 22 22 23 23 23 23 22 23 22 22 23 23 23 23 23 23 24 24 24 24 25 25 26 26 26 27 25 27 27 20 18 20 20 20 20 20 20 20 20 21 22 22 23 24 24 24 24 23 24 26 27 26 27 27 27 28 29 30 31 31 30 29 28 30 28 27 28 29 31 30 27 26 29 32 25 20 17 18 22 22 24 25 23 24 24 25 26
24 23 24 24 24 24 23 24 24 23 24 24 24 24 25 25 25 25 26 26 26 27 27 27 27 28 28 28 30 28 21 21 23 23 23 22 22 23 23 22 22 22 23 23 23 24 24 24 25 25 26 27 27 28 29 29 30 31 32 34 33 32 32 32 33 31 30 30 29 29 30 30 29 32 33 26 20 18 19 22 23 24 24 23 24 25 26 28
25 25 25 24 24 25 24 25 25 25 25 25 25 26 26 26 27 27 27 27 28 29 29 29 29 30 30 31 30 28 25 26 26 25 25 24 23 25 25 25 25 25 25 25 25 25 25 25 26 27 27 28 29 29 29 30 30 31 32 33 34 35 34 34 35 34 33 32 28 27 31 34 35 36 34 27 23 22 22 24 24 25 26 26 28 29 30 30
28 27 27 26 26 26 26 26 26 26 26 26 27 27 27 28 28 28 28 28 28 29 30 30 31 31 33 33 29 28 28 28 26 25 25 25 25 26 26 27 27 27 27 27 27 27 27 27 27 28 28 30 31 30 32 33 33 34 33 34 36 39 37 33 34 35 33 32 30 28 32 39 39 38 36 30 27 26 27 28 28 29 30 31 32 33 34 32
29 29 28 28 28 27 27 27 27 27 27 27 27 28 29 29 29 30 30 30 30 31 31 32 33 33 34 34 30 30 30 29 27 26 26 26 27 27 27 28 29 30 30 30 30 30 30 30 29 28 29 30 31 32 35 36 37 38 37 37 39 40 39 35 35 39 37 35 32 28 34 42 43 40 37 33 30 31 32 33 33 33 34 35 35 36 37 36
29 29 29 28 28 28 28 28 28 28 28 28 28 29 30 30 31 31 31 31 31 32 32 33 34 34 37 35 32 32 31 29 28 25 25 26 25 26 27 28 30 31 31 31 32 32 32 32 31 29 29 29 30 33 37 38 37 39 39 40 41 41 43 39 36 40 40 35 32 31 36 44 47 43 39 36 36 36 37 37 36 36 37 37 38 39 40 38
28 28 28 28 27 28 28 28 28 28 28 29 29 30 30 31 32 32 32 32 32 33 34 35 35 35 38 36 32 31 30 29 27 26 26 26 26 27 27 28 30 30 31 32 32 33 32 32 31 30 30 29 30 35 38 37 38 42 42 43 44 43 44 42 38 40 41 38 37 38 40 45 49 46 42 41 42 41 42 41 39 39 40 39 40 41 41 39
26 26 26 26 26 26 26 26 26 26 26 26 27 28 30 31 31 32 33 32 33 34 35 36 36 38 39 35 33 31 30 31 29 28 28 26 26 27 27 28 29 31 33 33 33 34 34 32 32 32 31 30 33 36 34 33 40 46 45 44 44 42 42 41 40 42 44 43 42 42 45 50 53 50 47 45 44 45 45 44 43 43 44 42 42 43 41 39
26 26 25 25 25 25 24 24 24 24 23 24 25 25 27 29 30 31 31 32 33 34 36 37 36 37 37 33 33 31 30 31 30 28 27 27 28 28 29 29 29 30 31 32 33 35 33 32 33 31 32 34 36 39 37 38 45 47 45 44 43 41 41 40 42 45 46 47 48 48 51 55 56 53 50 48 46 47 48 46 46 47 47 46 45 44 41 39
27 27 27 26 26 25 25 25 24 23 22 22 24 24 26 28 28 29 29 29 29 30 33 34 34 35 36 34 34 33 32 32 33 32 31 31 32 32 33 33 34 34 34 35 36 36 34 35 35 33 36 39 39 42 44 46 47 46 45 45 45 44 45 45 45 46 45 49 52 51 54 57 56 55 53 50 47 48 50 50 50 49 47 47 46 44 41 38
29 29 28 28 28 27 27 26 26 26 25 24 24 26 27 28 29 29 29 29 29 29 31 32 34 36 37 36 34 34 35 35 36 36 34 34 34 34 35 35 38 39 39 40 40 39 39 40 40 41 42 41 38 39 43 45 43 44 45 45 45 46 48 47 46 46 43 48 55 53 56 58 56 56 54 51 50 51 53 53 52 50 48 46 44 42 39 35
31 30 30 30 30 29 29 28 28 28 28 27 26 27 29 30 32 33 34 34 31 31 32 33 35 37 36 34 33 33 34 36 37 36 36 36 36 37 37 37 40 42 41 40 40 40 42 44 45 46 44 40 38 38 40 42 41 43 43 44 45 45 49 50 47 46 42 48 57 54 55 59 57 56 55 52 52 53 53 52 52 50 46 44 41 39 38 35
33 32 32 32 32 32 31 31 30 30 30 30 29 30 31 32 34 36 39 41 37 35 36 36 37 40 37 34 34 34 35 38 38 35 34 35 36 39 40 40 42 43 42 40 41 44 46 48 47 44 41 38 37 37 37 40 41 42 42 43 45 44 48 52 49 46 43 47 55 54 55 61 58 57 56 53 53 53 51 50 48 45 42 41 40 38 37 37
34 34 34 34 34 33 33 33 32 31 31 32 32 33 33 34 35 37 40 44 43 38 37 37 39 40 38 35 35 35 38 40 37 33 31 32 36 38 40 42 43 43 43 42 43 46 48 48 44 39 37 37 36 36 34 36 39 42 43 43 45 45 47 51 51 48 46 47 52 54 58 63 60 58 58 53 51 49 45 42 41 41 42 41 40 37 36 35
36 36 35 36 36 36 35 35 34 33 32 32 33 33 34 35 35 37 40 45 48 43 38 37 39 38 34 33 34 35 39 39 37 35 32 33 36 37 39 41 42 44 45 44 44 49 51 47 42 40 41 41 40 40 36 35 41 47 46 44 48 49 47 51 51 46 45 46 48 50 56 61 56 52 52 46 44 44 42 42 42 41 41 38 37 36 33 31
36 36 35 34 34 34 33 32 33 32 32 32 33 33 34 34 34 36 38 42 48 46 38 32 32 31 25 22 24 26 31 31 29 30 29 30 32 35 39 40 41 45 45 43 44 50 52 47 42 43 42 41 42 42 37 35 44 51 47 43 47 47 45 45 41 39 41 40 38 37 33 37 38 37 42 44 44 46 44 43 42 40 37 33 32 30 26 24
34 32 30 27 26 27 26 27 28 29 30 31 32 32 32 32 32 33 35 41 46 43 32 20 15 16 14 11 11 14 19 18 14 16 18 19 23 28 35 38 40 43 43 41 42 47 50 45 41 41 40 40 39 39 37 34 42 50 46 40 42 42 42 40 34 32 32 31 33 28 19 26 39 39 43 49 49 47 43 40 40 36 30 25 22 22 21 21
31 30 28 26 25 25 25 26 27 30 31 31 32 32 31 30 30 31 31 30 30 27 17 6 3 8 12 14 13 14 16 14 11 13 15 15 18 23 30 36 36 39 40 38 39 43 43 41 40 40 39 37 35 37 37 31 36 46 44 38 37 38 39 38 33 31 33 38 37 30 23 29 44 46 46 50 45 37 32 28 27 23 18 18 17 18 21 23
30 30 30 28 27 27 28 30 31 32 33 33 33 31 30 28 28 28 22 12 12 15 12 9 11 15 17 17 18 19 19 19 18 17 15 15 19 22 26 30 30 33 36 36 41 43 40 39 41 39 35 34 37 39 36 28 32 42 41 37 36 36 38 39 38 36 36 38 29 17 10 15 38 49 38 32 27 21 18 11 12 15 14 16 16 16 22 26
32 32 31 31 31 31 32 33 32 32 31 32 31 29 30 28 27 24 14 8 13 16 16 17 18 16 14 13 16 19 20 21 20 17 15 17 20 22 24 24 23 26 29 32 40 40 34 36 40 38 36 38 41 39 35 32 35 40 37 36 35 34 37 35 38 37 31 29 20 8 4 8 33 42 17 10 13 9 6 5 11 17 12 11 15 20 26 28
35 35 34 35 35 33 34 32 29 29 30 29 27 28 30 28 26 17 8 13 18 19 22 22 18 15 14 14 16 18 19 19 18 17 17 20 23 24 25 23 22 25 26 29 35 35 31 34 39 38 37 40 41 37 37 37 37 37 34 35 34 35 38 34 35 31 19 19 19 15 17 14 18 19 5 4 4 6 6 12 21 20 11 11 18 23 27 27
34 35 35 36 34 32 33 29 27 28 27 27 26 26 27 25 22 11 8 19 23 20 21 16 9 9 10 12 14 14 16 17 17 17 19 23 24 25 25 22 21 23 26 30 33 32 31 32 35 36 36 37 37 36 38 38 37 36 35 36 31 27 27 22 21 17 7 12 17 18 23 20 20 14 2 1 3 11 21 23 22 17 12 19 27 30 28 24
32 32 33 34 33 31 30 27 26 26 26 28 26 23 23 18 18 22 23 23 15 8 10 4 2 5 6 10 13 12 15 18 19 20 22 24 25 26 23 22 22 20 22 28 30 31 35 37 36 37 38 35 32 34 37 36 37 36 37 36 22 11 12 7 5 5 7 18 25 20 15 20 35 36 27 26 24 18 16 18 21 20 21 28 32 31 26 21
33 33 33 34 34 33 32 28 26 25 26 27 22 20 20 12 17 31 34 28 16 11 14 13 13 15 16 21 21 18 19 20 21 21 22 25 26 27 25 26 28 25 25 29 30 32 35 39 40 37 36 34 32 35 35 34 34 35 39 36 19 6 3 3 4 3 8 23 31 26 17 19 32 36 31 27 16 7 13 24 29 27 26 29 27 24 22 22
37 36 35 35 36 36 35 33 30 29 27 26 21 19 19 17 23 33 31 28 25 22 24 26 27 27 28 29 25 20 19 20 20 20 23 26 28 29 29 29 29 29 31 30 31 31 26 30 38 33 27 29 33 33 32 33 34 35 38 34 28 23 13 5 5 5 8 16 18 15 12 14 19 17 12 10 14 22 28 26 24 24 25 27 26 24 24 27
41 41 38 37 38 38 37 35 33 32 30 28 25 22 25 29 32 32 27 25 25 25 28 30 30 31 31 29 26 23 20 19 19 20 23 25 26 28 29 29 28 28 29 26 27 28 24 30 41 35 28 32 36 35 34 31 31 35 35 30 33 38 32 20 19 24 17 10 9 13 15 27 35 32 30 30 33 30 21 19 23 25 25 25 27 29 29 30
41 41 40 40 42 40 38 37 34 32 30 30 26 25 33 37 34 30 27 23 21 22 25 25 26 28 28 26 25 23 19 16 15 15 18 20 23 27 30 29 28 28 29 28 28 26 24 31 39 36 36 39 40 39 36 29 27 29 29 30 33 38 38 29 23 30 23 10 14 22 24 34 40 40 40 33 25 19 17 22 24 23 23 23 25 30 29 27
37 37 39 40 40 38 37 36 33 30 30 30 30 33 39 41 39 37 34 30 27 23 22 23 24 24 22 20 18 18 17 15 13 12 15 17 17 22 25 24 23 26 27 27 28 26 25 32 39 41 43 44 42 41 39 37 36 33 31 34 33 26 29 28 13 10 13 8 13 25 32 33 25 23 25 18 15 19 22 21 18 19 20 16 17 21 20 22
34 34 37 38 36 34 33 32 30 29 27 29 35 42 45 46 46 44 40 38 36 31 29 29 30 29 27 27 28 26 24 23 20 18 21 22 21 24 26 23 19 20 20 21 24 26 26 28 33 40 43 40 36 37 38 40 41 41 40 40 31 17 18 24 14 5 9 8 7 18 31 35 28 26 26 20 18 20 17 13 11 12 10 10 13 14 15 18
31 32 36 36 33 31 31 31 29 28 29 32 39 44 48 51 50 47 44 42 40 38 37 36 35 33 30 32 35 34 33 32 29 25 22 20 22 25 23 17 13 14 17 20 21 22 22 20 24 36 40 34 29 30 35 36 35 36 37 38 37 30 24 23 20 12 10 9 8 11 16 23 32 34 27 20 18 17 15 15 12 9 12 16 14 11 12 14
30 31 35 35 31 30 29 30 30 30 33 39 44 46 48 49 48 46 45 41 38 37 37 36 33 32 32 33 35 35 36 35 33 30 27 24 25 26 23 20 21 23 24 23 21 19 18 15 19 27 32 33 32 29 26 24 22 24 31 36 37 37 33 25 21 22 17 8 6 8 7 15 33 37 28 24 21 18 20 23 22 18 18 24 23 18 17 16
30 31 36 34 30 28 27 29 32 33 37 42 44 46 47 47 48 48 46 44 41 40 38 36 35 35 36 36 36 36 36 36 37 35 34 33 32 31 30 30 30 28 26 26 27 25 21 17 18 22 24 32 38 35 26 20 16 17 24 29 31 35 35 20 13 24 27 15 8 9 6 11 31 42 42 40 35 31 32 33 34 31 30 35 36 33 31 28
31 33 36 32 28 27 27 29 32 33 38 42 44 46 46 45 47 47 46 45 43 41 38 37 38 39 38 37 38 39 37 37 38 36 36 37 36 35 35 36 34 31 30 32 33 33 32 27 26 29 32 34 35 36 35 31 28 26 26 28 26 29 33 24 14 20 25 19 17 17 11 12 30 47 52 51 48 47 47 48 50 49 46 46 43 42 42 37
33 34 33 29 26 26 27 30 32 34 38 41 42 43 43 43 44 44 43 43 40 37 35 36 37 38 38 39 39 39 39 39 39 39 37 38 39 39 38 37 37 34 31 32 33 32 33 32 31 34 38 40 41 44 44 41 39 39 39 38 33 31 35 33 28 28 25 23 24 19 12 21 40 53 56 55 55 56 57 59 61 59 57 52 44 39 37 33
35 35 34 32 30 29 32 35 35 37 39 39 40 42 42 43 44 43 43 42 39 36 35 36 36 36 37 38 38 39 39 38 38 39 38 39 41 41 39 35 34 31 29 31 31 29 30 32 31 26 22 24 28 31 37 43 47 47 44 40 39 39 39 37 40 37 27 28 34 22 13 31 53 61 62 62 63 65 66 66 63 61 61 57 50 44 42 40
34 35 35 35 34 34 38 39 38 39 39 38 41 42 43 44 45 44 43 42 41 39 38 37 36 36 38 38 38 40 39 38 37 38 38 40 40 38 35 32 31 31 31 31 31 33 37 36 31 22 12 10 13 17 27 37 41 42 38 33 34 36 36 38 42 34 22 30 42 32 24 41 55 56 59 64 66 69 71 70 65 60 61 62 60 57 54 53
32 34 34 33 33 35 40 40 39 40 40 39 40 41 42 45 45 44 43 43 41 39 39 39 38 38 40 40 40 40 41 41 40 40 41 41 38 37 34 33 34 35 35 34 33 36 41 40 36 35 32 30 34 37 41 41 36 34 34 35 38 39 40 41 39 35 31 34 40 40 40 47 50 49 54 62 66 69 72 72 69 65 65 66 64 61 59 59
31 33 33 31 28 30 36 40 40 40 39 38 39 41 42 43 43 42 41 41 39 37 37 36 36 38 40 41 41 40 41 41 41 42 43 41 40 40 38 37 38 38 38 38 37 38 43 44 42 45 47 47 51 53 53 52 50 48 48 50 52 52 50 47 44 45 44 34 30 41 48 48 48 49 55 62 67 69 71 71 69 67 67 66 63 63 64 63
30 32 31 30 29 29 33 36 37 37 36 37 38 39 39 40 40 40 39 38 36 34 33 32 32 34 35 35 36 37 38 39 40 41 40 38 39 39 40 40 37 35 35 36 35 38 45 49 49 50 51 50 51 51 52 53 55 56 55 55 57 56 55 55 56 59 57 47 42 49 51 52 54 55 58 64 68 69 70 70 68 66 65 65 64 67 69 66
30 32 30 30 33 34 35 35 35 34 34 36 39 39 38 38 39 39 36 36 35 34 33 33 33 33 33 34 34 36 37 36 34 34 33 33 33 33 36 38 37 37 35 31 29 31 36 42 44 47 52 51 49 50 51 52 55 57 57 56 57 57 58 61 62 64 64 63 65 65 62 62 65 63 65 69 70 71 70 66 65 65 66 67 67 67 67 64
31 32 31 32 34 34 34 37 37 36 36 36 40 41 39 39 40 39 37 37 38 38 36 35 34 32 32 34 34 34 34 33 30 29 29 29 29 29 30 32 35 38 34 28 26 25 28 33 34 38 45 47 47 50 51 50 52 54 55 55 55 58 61 63 64 65 65 68 71 69 66 67 69 68 70 71 70 70 68 63 64 65 65 65 63 61 61 60
32 32 32 33 33 33 33 36 38 39 39 38 39 40 39 39 39 38 39 39 37 37 36 35 36 34 32 33 31 30 32 32 30 32 33 34 35 35 34 33 34 36 35 34 33 31 32 35 36 36 38 39 41 43 44 48 50 52 55 56 58 61 63 63 64 64 64 66 68 66 65 68 67 64 64 63 62 62 61 60 61 60 60 61 60 60 60 61
33 32 32 32 33 33 33 35 37 40 42 41 41 42 41 43 44 43 43 43 41 41 42 41 42 43 42 41 41 41 43 44 43 43 44 45 45 45 46 45 42 41 43 43 43 43 44 43 41 37 34 34 37 39 44 44 36 36 46 54 57 61 63 63 64 63 64 66 62 56 53 49 42 39 41 45 48 49 48 47 48 51 54 56 56 56 55 55
Wind_Direction
256 256 256 256 256 256 256 257 258 259 261 261 263 264 265 267 267 266 264 265 266 267 268 268 268 268 269 272 273 272 272 272 271 272 266 258 257 254 255 254 253 254 251 252 254 256 258 258 256 256 256 257 256 256 257 256 258 260 260 263 267 274 275 275 275 272 278 284 284 283 282 285 289 294 298 298 300 300 294 292 293 294 295 296 292 287 285 281
260 260 260 259 258 259 258 258 258 259 260 261 262 263 266 268 269 270 269 269 269 269 269 268 268 267 267 268 269 269 270 272 273 273 266 262 265 262 260 259 257 259 256 254 256 257 258 260 259 260 259 258 260 261 262 261 261 262 264 266 270 280 272 272 283 282 281 283 284 285 285 286 291 297 297 296 298 297 292 292 295 296 297 295 289 283 280 277
265 265 265 264 264 264 263 263 262 262 262 263 264 265 267 268 270 272 272 273 272 272 272 271 270 268 268 267 267 266 266 270 274 274 269 266 267 265 263 262 260 260 259 258 259 261 264 266 265 265 265 264 265 265 264 264 265 264 263 266 276 285 271 274 290 291 287 285 285 287 288 290 296 297 294 296 297 292 286 291 299 298 295 289 283 281 279 278
267 267 267 267 267 267 267 266 266 265 265 265 266 266 267 268 270 272 273 274 274 274 275 274 273 271 271 270 269 267 265 270 274 274 270 266 264 263 263 262 261 259 260 263 264 266 268 271 272 272 270 266 266 267 266 267 271 266 262 267 279 278 271 274 286 289 289 287 287 289 290 293 297 293 292 297 296 293 293 295 296 293 289 284 281 281 280 278
268 268 268 268 268 268 268 268 268 268 268 268 268 268 268 269 270 271 272 272 273 274 275 276 275 274 274 273 272 270 269 273 274 269 267 267 265 264 263 262 260 257 259 263 266 268 271 273 274 275 276 272 269 269 269 271 272 269 268 272 278 277 275 275 279 283 286 286 287 290 292 294 294 290 292 294 291 302 317 300 291 288 288 283 279 279 277 278
268 269 269 270 270 270 270 270 270 269 269 269 269 269 270 270 271 272 272 273 273 273 273 274 275 275 275 274 274 272 272 274 270 262 262 266 268 266 264 264 260 257 258 262 265 268 270 271 272 275 279 278 276 275 278 279 275 275 277 280 282 282 280 280 281 283 286 287 290 293 293 293 294 293 293 290 286 306 319 301 293 286 281 279 277 277 278 281
267 268 269 269 270 270 270 271 271 271 270 270 270 270 270 270 271 271 273 274 274 274 274 274 275 275 275 273 273 270 269 272 271 267 265 266 267 264 263 264 263 261 261 263 267 269 269 268 270 274 275 276 277 278 280 280 277 277 279 283 285 283 283 286 287 286 289 290 292 293 293 294 296 295 290 285 288 309 313 300 294 282 273 272 273 276 281 284
265 266 267 268 269 269 270 270 271 271 271 272 272 271 271 270 270 271 272 273 275 276 276 276 276 277 276 274 272 269 269 274 274 270 270 271 270 266 265 265 264 264 264 264 266 267 267 266 268 270 271 273 275 275 276 276 275 274 277 281 281 280 284 287 287 288 291 291 291 291 292 294 296 292 285 284 297 313 304 291 288 279 270 270 272 276 281 285
265 266 268 268 269 270 270 270 271 271 272 273 273 273 273 272 272 272 271 272 274 275 276 277 278 279 278 277 276 270 271 278 275 270 270 272 272 269 268 269 267 266 265 265 265 265 265 267 267 267 268 271 272 272 274 274 272 273 276 278 277 279 282 282 283 285 288 289 291 293 294 292 292 288 283 290 310 309 289 278 277 275 272 273 276 279 282 284
265 266 267 268 269 270 270 271 271 272 273 274 274 275 275 274 274 274 273 273 274 274 275 276 278 279 278 279 277 273 274 277 273 272 271 271 272 271 269 268 269 269 268 268 266 266 267 268 267 265 266 269 270 272 273 272 273 274 275 275 276 279 281 280 279 281 284 287 291 294 292 287 284 280 281 298 318 305 280 274 274 275 277 281 283 283 284 283
264 265 266 267 268 269 270 271 271 272 272 273 275 275 275 276 276 275 275 275 275 276 276 277 278 278 278 277 274 275 278 274 271 271 270 271 272 271 271 269 268 269 269 269 269 269 269 268 267 266 265 267 269 271 272 273 274 274 274 273 275 277 279 281 280 282 284 286 291 293 288 281 276 276 283 301 315 303 287 281 278 278 281 285 287 288 286 284
263 263 264 265 267 268 270 271 272 272 273 273 274 275 276 276 276 276 275 275 276 276 277 278 278 278 278 274 271 277 278 273 272 272 271 273 271 270 271 271 270 270 269 270 271 272 270 269 267 265 264 265 268 270 272 274 273 273 274 275 276 276 277 279 281 282 283 285 291 293 284 278 276 279 287 299 305 301 295 290 286 283 282 283 287 290 288 289
263 262 262 263 264 265 267 269 271 272 273 274 275 276 276 276 276 276 276 277 276 277 278 279 279 279 278 274 272 275 274 273 274 274 275 276 274 271 270 271 272 271 270 270 271 272 270 269 267 265 264 265 267 269 271 272 272 273 273 274 277 277 277 282 283 282 283 286 291 291 282 280 282 285 290 296 298 300 299 298 296 291 286 284 286 289 290 291
265 264 264 264 264 264 265 267 268 270 272 273 274 275 276 276 276 276 276 277 277 278 278 279 279 280 278 277 276 275 275 275 276 278 280 278 275 273 271 271 270 269 270 269 270 270 270 270 268 265 263 264 268 270 270 269 270 273 273 272 273 272 276 286 287 285 287 289 291 287 278 281 286 288 292 295 295 297 298 299 298 297 292 288 287 288 290 291
266 267 267 266 266 266 266 267 268 269 270 272 273 274 275 276 276 276 276 276 277 277 277 278 278 279 279 279 278 277 278 279 280 281 279 277 275 273 272 269 268 268 268 268 269 269 269 269 267 265 264 266 269 270 268 268 269 272 272 271 271 270 276 284 287 287 289 290 289 283 277 283 287 287 293 297 294 294 296 296 297 298 296 292 290 289 290 292
269 269 269 269 268 268 268 269 269 269 270 272 273 274 274 275 275 275 275 275 276 276 276 276 277 278 278 279 279 279 280 281 281 279 277 277 275 272 272 270 269 268 267 268 268 268 268 267 266 265 265 266 267 268 267 268 269 269 268 269 271 272 276 281 287 290 290 288 287 284 281 285 287 287 292 296 295 294 294 294 295 297 297 294 290 290 291 293
271 271 272 272 271 271 272 272 273 273 274 275 276 277 277 276 276 275 275 274 274 275 275 275 276 276 276 278 280 280 280 280 280 279 279 277 273 272 274 273 271 269 267 267 266 267 268 267 266 264 264 266 267 265 262 261 264 266 266 268 271 275 277 281 287 288 287 288 290 288 285 286 288 289 291 294 295 294 293 294 294 295 295 292 290 291 292 293
272 272 273 274 274 275 275 276 277 278 279 280 280 280 280 279 278 277 276 275 275 275 275 275 276 277 277 278 279 280 280 280 280 279 277 276 274 275 276 276 274 270 268 267 267 267 269 271 268 263 262 262 261 259 254 258 266 270 272 275 277 279 280 281 285 286 287 290 290 289 286 287 290 291 291 293 294 293 292 293 293 293 293 291 291 291 291 292
271 272 272 273 274 276 277 279 280 281 282 284 285 285 284 284 283 282 281 279 278 277 277 278 277 277 278 278 278 279 279 278 278 277 276 275 275 275 277 276 273 270 269 269 269 270 274 273 266 260 261 262 263 263 265 273 280 281 280 279 278 280 280 281 283 285 289 290 288 286 286 287 290 291 292 293 293 293 291 290 290 291 291 290 290 289 288 288
271 272 272 273 275 276 278 280 282 284 286 287 288 290 289 290 290 288 285 283 281 280 279 279 279 277 278 280 281 281 280 278 276 275 275 274 274 275 274 272 271 270 268 270 272 275 276 271 264 264 267 270 275 277 279 283 285 283 281 278 278 279 280 282 283 286 291 288 285 286 287 288 290 291 293 294 293 291 288 289 289 290 291 289 288 286 285 286
271 272 273 275 276 277 279 280 283 285 287 287 288 289 291 292 293 291 289 284 282 281 280 278 279 278 279 283 286 284 282 277 274 273 272 273 273 274 272 271 270 270 270 272 275 276 272 267 266 271 276 281 284 283 282 281 281 281 280 279 279 278 281 285 286 288 291 287 285 289 289 289 290 291 291 291 290 288 287 289 289 290 290 287 285 284 284 288
271 272 274 275 277 278 279 281 282 284 286 287 287 288 289 291 292 293 292 288 283 281 281 280 279 279 281 284 286 285 280 275 275 274 272 272 270 269 270 270 269 270 271 272 273 273 269 267 271 277 283 286 284 281 280 279 280 279 278 277 276 280 285 288 289 291 293 288 288 292 290 288 290 290 288 287 287 286 288 289 289 288 288 286 286 287 289 291
272 272 274 275 277 278 280 281 281 283 284 286 287 288 289 290 291 292 292 292 288 284 283 283 282 282 284 284 282 280 275 274 275 274 270 268 266 265 265 266 267 269 269 268 268 268 267 270 276 282 284 283 281 281 280 279 279 278 277 275 276 283 286 285 290 295 295 290 290 293 289 287 288 286 285 286 286 287 288 288 286 286 289 290 289 289 290 291
273 274 275 276 277 277 279 280 280 281 282 284 286 287 289 290 292 293 294 294 292 290 290 289 287 286 287 284 279 272 268 268 270 270 267 264 263 262 262 263 265 266 266 267 267 267 268 272 278 279 278 278 278 277 275 276 279 279 277 275 279 286 286 285 291 296 293 289 289 292 289 285 285 286 286 287 287 287 289 289 288 287 290 293 292 291 291 292
274 275 275 276 277 277 278 278 280 281 282 283 284 286 287 289 292 295 297 297 296 297 298 295 291 292 292 285 277 270 266 267 271 272 268 264 263 263 263 262 263 265 267 268 269 269 270 273 275 275 274 274 273 273 271 272 279 279 275 278 285 288 288 288 293 295 290 287 290 295 294 290 289 288 288 289 289 290 291 292 291 291 292 294 293 294 295 293
273 272 272 272 273 276 278 280 283 285 285 285 285 285 285 288 292 295 300 300 297 299 302 299 291 291 295 293 284 272 271 275 275 272 273 273 269 265 263 262 262 265 267 268 270 270 272 274 274 273 273 272 269 269 269 271 274 275 277 286 290 290 289 290 293 291 284 285 291 288 280 287 291 286 286 291 292 293 294 293 292 293 294 297 299 304 308 302
270 269 268 267 269 273 278 282 284 285 286 286 284 283 283 287 290 295 305 306 298 300 305 294 259 277 287 293 287 273 270 276 280 279 282 280 273 267 264 264 265 266 267 268 266 267 272 276 276 277 276 272 267 266 271 271 268 273 283 289 288 288 289 289 290 288 286 291 291 281 271 276 283 284 290 296 296 297 299 297 298 298 298 308 310 308 314 315
267 266 265 264 264 267 272 277 280 280 281 281 279 279 280 284 287 294 308 307 287 299 301 274 275 285 286 282 274 267 267 274 278 277 273 268 267 267 265 267 269 270 270 267 264 268 273 276 278 278 274 271 271 273 276 273 266 274 284 285 283 283 283 283 284 284 290 295 291 282 264 259 280 289 297 303 300 303 308 312 320 314 306 314 314 306 312 318
266 265 265 265 265 267 271 273 275 274 274 275 276 277 279 281 283 290 297 268 274 295 291 280 284 287 281 269 260 262 266 271 272 267 263 264 266 266 268 273 274 272 271 267 268 274 277 277 276 271 269 274 279 279 277 272 271 276 280 280 279 278 277 278 281 282 288 288 278 261 212 249 286 292 303 321 310 322 350 21 347 324 302 302 315 311 310 314
267 267 268 269 270 271 270 269 268 268 269 271 274 274 274 274 277 283 264 255 276 291 287 287 289 281 271 262 257 260 264 266 267 268 271 270 269 269 272 275 275 273 273 269 272 280 283 279 274 272 277 280 279 276 274 272 273 275 276 275 275 274 275 276 274 275 283 278 263 261 270 264 278 295 355 21 356 51 3 321 318 313 287 287 308 309 307 308
268 268 269 270 272 270 267 265 263 265 268 271 272 269 268 268 268 254 229 264 279 286 286 290 291 283 278 269 263 263 266 267 269 274 279 277 274 273 272 274 274 274 275 272 275 283 284 277 278 285 287 283 279 277 275 272 269 270 271 270 273 277 278 275 266 259 250 265 262 271 279 255 242 266 338 139 307 327 312 306 308 303 283 292 303 304 302 302
267 269 270 271 270 268 266 264 262 263 266 269 269 267 264 261 251 237 243 267 282 284 281 276 245 274 279 272 273 275 275 275 276 277 279 277 274 273 274 277 278 274 273 275 278 281 278 276 282 286 284 281 281 276 272 269 267 267 263 259 262 283 289 270 238 223 219 253 262 268 270 244 245 257 264 271 288 306 306 308 309 298 291 296 299 298 295 292
265 267 269 270 269 267 263 262 262 261 262 266 269 266 260 249 247 250 251 257 256 253 264 266 268 272 273 276 278 278 276 276 275 273 273 271 270 272 273 275 276 272 271 276 279 280 281 281 280 277 276 279 277 270 268 271 274 272 262 253 236 216 271 249 244 273 249 257 263 260 250 248 256 266 275 276 273 272 292 303 302 294 292 294 289 286 290 291
265 266 267 268 269 267 264 262 262 262 264 268 270 261 245 232 248 259 257 254 254 256 261 267 272 273 274 276 276 275 275 274 272 270 269 269 269 271 270 269 270 271 272 273 273 275 280 281 279 275 276 281 280 278 281 284 283 279 270 258 239 229 226 212 229 241 251 265 262 236 219 245 261 271 279 262 258 279 295 303 302 298 299 295 282 277 286 288
265 265 265 265 265 265 265 264 265 266 266 268 268 252 236 237 249 257 259 259 259 258 260 265 271 273 272 272 273 275 276 272 267 264 264 266 270 271 271 270 269 270 268 262 263 269 269 272 278 282 284 285 283 286 292 286 273 270 266 249 240 244 244 240 243 248 259 288 261 219 227 254 263 267 271 277 282 285 296 306 307 308 305 296 280 271 276 280
265 264 263 262 263 263 263 264 266 267 265 264 262 247 242 249 253 254 257 259 256 255 260 264 266 268 269 271 272 268 261 256 251 251 257 266 271 269 269 270 269 269 268 265 268 271 267 269 274 279 280 278 278 282 285 278 266 264 257 246 252 259 252 245 248 254 260 280 261 252 258 263 268 275 277 278 276 271 285 300 308 312 304 297 287 276 271 271
267 265 262 261 261 260 260 261 262 263 263 262 258 252 253 257 257 256 259 260 257 257 263 266 265 265 267 269 263 246 239 244 241 241 253 263 266 263 264 268 271 270 270 272 275 273 270 271 271 271 273 271 273 278 276 272 268 261 255 260 268 265 249 243 245 257 251 256 259 256 263 267 267 274 275 267 261 276 292 299 307 308 297 298 299 283 269 265
269 267 264 261 259 257 257 258 256 256 259 259 258 257 258 259 260 261 262 262 262 263 265 265 267 268 267 266 264 259 257 258 253 253 261 262 262 265 268 272 273 268 262 263 267 264 265 271 269 267 270 274 275 274 269 266 263 256 256 263 261 247 238 233 223 231 240 244 252 243 255 266 264 264 271 272 275 286 290 290 314 336 331 321 309 289 274 268
268 266 264 262 260 256 254 254 252 252 252 251 253 256 256 257 260 263 265 266 266 267 267 268 269 270 268 266 269 271 271 266 260 260 262 257 256 262 262 254 249 256 259 261 262 260 261 268 269 263 265 273 276 269 265 263 260 256 253 251 248 247 248 236 225 228 232 242 259 241 245 262 264 268 276 277 278 286 281 277 296 335 343 331 324 322 312 294
266 265 264 264 261 256 253 253 251 249 248 248 251 254 255 257 259 263 266 267 266 267 269 271 271 269 268 268 270 273 272 270 267 264 263 258 256 258 253 244 251 264 268 264 260 263 266 265 270 268 264 266 264 261 263 264 264 264 254 246 244 245 247 248 240 236 238 248 258 250 243 250 259 267 272 269 272 282 280 279 281 281 295 302 304 310 314 307
264 261 263 264 260 256 253 251 249 247 247 248 250 252 253 256 259 262 265 266 267 269 270 271 270 269 270 270 271 272 271 270 270 268 266 263 260 260 262 265 270 272 271 265 259 263 267 260 268 275 266 257 255 255 258 255 256 269 266 260 257 251 248 252 249 241 243 248 252 265 267 247 255 261 263 263 267 275 276 276 276 273 275 281 283 284 287 288
262 259 264 266 260 258 255 250 249 249 248 247 248 251 254 257 260 262 265 268 269 271 270 268 267 267 268 269 271 273 272 269 269 267 266 266 264 264 270 275 278 280 278 276 272 270 266 260 263 267 261 255 255 254 252 251 254 263 269 270 271 261 250 244 243 246 247 253 269 276 272 252 256 259 261 264 268 274 278 277 278 277 275 276 277 278 279 279
264 263 266 264 256 255 254 252 251 250 248 248 250 252 255 259 261 263 266 269 270 270 269 268 268 268 269 270 271 271 271 270 269 267 267 270 271 271 274 277 281 284 283 279 278 274 264 256 256 259 259 259 258 258 256 255 258 261 261 260 261 262 258 254 257 260 256 257 265 271 265 254 257 259 263 268 271 275 278 279 280 282 279 277 275 272 271 270
265 265 264 260 254 250 249 250 253 254 254 254 254 254 257 259 260 261 264 267 268 270 271 270 270 270 271 271 269 268 268 267 268 270 271 273 275 275 276 278 278 279 278 274 274 273 266 259 252 252 260 261 258 260 259 257 258 259 259 259 258 261 264 264 263 262 259 254 253 253 255 256 259 261 263 267 271 275 278 278 279 281 279 277 274 269 269 270
264 263 262 261 256 251 249 250 253 257 260 261 259 259 260 261 260 261 263 264 265 267 268 268 269 269 270 270 268 266 264 261 263 269 272 274 275 276 277 276 275 275 274 273 274 273 271 263 250 240 239 247 246 251 257 259 259 255 253 254 255 259 264 266 264 259 255 254 251 248 255 261 262 265 266 268 271 274 276 278 280 281 280 280 279 278 279 281
264 262 262 260 255 252 255 257 255 254 256 258 259 260 261 262 265 267 268 268 266 264 264 264 265 266 267 266 265 264 264 264 265 267 269 270 271 274 276 277 279 280 279 277 275 273 273 270 261 252 248 251 256 259 262 263 257 248 247 251 257 264 269 267 262 256 257 261 256 251 258 264 264 265 268 270 272 273 276 279 282 283 282 283 284 286 289 291
263 262 262 259 253 248 253 258 258 255 255 254 255 257 259 262 267 268 268 268 269 269 268 265 263 262 264 265 266 265 266 267 266 266 268 270 272 276 277 276 278 279 279 278 275 274 273 272 270 265 259 258 262 265 266 263 258 256 258 262 267 271 270 263 258 258 260 264 261 257 259 262 263 264 267 269 272 275 277 279 283 284 285 286 287 289 292 294
264 262 260 255 251 248 249 254 255 255 255 254 255 257 259 261 264 265 266 268 269 270 269 267 266 265 265 266 264 263 266 268 267 267 268 269 271 274 274 273 274 275 277 278 276 273 268 265 266 267 264 263 264 265 266 263 260 260 261 263 266 268 266 262 260 261 261 260 261 263 262 262 264 265 266 270 272 274 276 279 283 285 287 287 288 289 292 293
264 263 259 253 250 251 251 252 252 250 247 246 249 254 255 256 258 260 264 268 268 266 266 269 271 270 269 267 261 259 260 261 261 263 263 264 265 268 271 273 274 276 276 274 271 271 270 268 269 268 265 264 264 265 264 263 261 260 260 262 263 264 264 263 262 262 262 260 262 265 264 263 265 266 267 269 270 271 274 279 283 285 287 289 290 290 290 290
266 264 261 255 253 254 251 248 248 249 246 242 244 250 254 256 258 260 261 262 262 263 265 267 265 261 259 258 252 248 248 247 248 252 255 260 263 264 269 272 275 276 274 268 264 270 282 286 285 280 274 270 269 268 264 260 258 258 259 262 263 263 263 262 261 262 261 261 263 265 263 264 267 269 269 270 271 272 273 277 282 286 287 287 287 286 285 285
266 264 263 259 258 258 253 248 245 246 247 246 243 244 248 251 252 253 254 253 253 256 258 257 255 253 251 250 247 247 253 255 255 255 257 263 267 268 270 272 273 275 273 269 269 275 285 291 292 289 281 274 274 273 269 267 265 260 259 262 263 260 259 259 261 262 261 260 262 262 263 267 273 275 274 274 274 272 272 276 279 280 280 279 280 280 281 282
265 263 262 261 260 260 257 252 247 244 248 250 245 241 242 246 246 247 250 252 251 252 253 252 253 255 254 253 254 259 264 267 266 264 264 267 269 268 269 270 271 273 273 273 275 277 281 286 289 288 282 279 283 285 282 279 271 256 256 263 264 261 260 260 261 263 263 262 262 263 266 272 278 278 273 270 269 269 270 273 273 271 271 273 274 275 276 277
Height
3195 3195 3195 3195 3195 3194 3194 3194 3194 3194 3194 3193 3193 3193 3193 3192 3192 3192 3192 3192 3191 3191 3191 3191 3190 3190 3190 3190 3189 3189 3189 3188 3188 3189 3188 3187 3186 3187 3186 3186 3185 3185 3185 3184 3184 3183 3183 3182 3182 3181 3181 3181 3180 3180 3179 3178 3178 3177 3176 3175 3174 3174 3174 3173 3172 3172 3170 3170 3169 3169 3168 3167 3167 3166 3165 3164 3163 3162 3161 3160 3160 3159 3159 3159 3159 3159 3158 3158
3194 3194 3194 3194 3194 3193 3193 3193 3193 3193 3192 3192 3192 3192 3191 3191 3191 3190 3190 3190 3190 3190 3189 3189 3189 3189 3189 3189 3188 3188 3188 3187 3187 3187 3187 3186 3186 3186 3185 3185 3184 3184 3184 3183 3183 3182 3181 3181 3180 3180 3180 3179 3179 3178 3177 3177 3176 3175 3174 3173 3173 3173 3173 3172 3171 3171 3169 3169 3168 3167 3167 3165 3165 3164 3163 3161 3161 3160 3158 3158 3158 3157 3157 3156 3156 3156 3156 3155
3193 3193 3193 3193 3192 3192 3192 3192 3192 3191 3191 3191 3191 3190 3190 3190 3189 3189 3189 3188 3188 3188 3188 3188 3188 3187 3187 3187 3187 3187 3186 3186 3186 3186 3185 3185 3185 3184 3184 3183 3183 3183 3183 3182 3182 3181 3180 3179 3179 3179 3179 3178 3177 3177 3176 3176 3175 3174 3172 3171 3172 3172 3171 3171 3170 3169 3168 3167 3166 3166 3165 3164 3164 3163 3161 3159 3158 3157 3156 3156 3156 3155 3155 3154 3153 3153 3153 3153
3191 3191 3191 3191 3191 3191 3191 3190 3190 3190 3190 3190 3189 3189 3189 3188 3188 3188 3187 3187 3187 3186 3186 3186 3186 3186 3186 3186 3185 3185 3185 3185 3185 3184 3184 3183 3183 3183 3182 3182 3182 3181 3181 3181 3180 3180 3179 3178 3178 3178 3177 3177 3176 3175 3175 3175 3173 3172 3170 3170 3171 3170 3169 3169 3169 3168 3167 3165 3165 3164 3163 3162 3162 3160 3158 3158 3156 3154 3154 3155 3154 3153 3153 3152 3151 3150 3150 3150
3189 3189 3189 3189 3189 3189 3189 3189 3189 3188 3188 3188 3188 3187 3187 3187 3186 3186 3186 3185 3185 3185 3184 3184 3184 3184 3184 3184 3184 3184 3183 3183 3183 3182 3182 3182 3182 3181 3181 3181 3180 3180 3180 3179 3179 3179 3178 3177 3176 3176 3175 3176 3175 3174 3174 3174 3172 3169 3168 3169 3170 3169 3167 3168 3168 3166 3165 3164 3163 3162 3161 3160 3160 3158 3157 3156 3154 3151 3152 3153 3152 3151 3150 3149 3148 3148 3147 3147
3187 3187 3187 3187 3187 3187 3187 3187 3187 3187 3186 3186 3186 3186 3185 3185 3185 3184 3184 3183 3183 3183 3182 3182 3182 3182 3182 3182 3182 3182 3182 3182 3182 3181 3181 3181 3180 3180 3180 3179 3179 3178 3178 3178 3178 3177 3177 3176 3175 3174 3173 3173 3173 3172 3172 3172 3170 3167 3166 3167 3168 3167 3165 3165 3166 3164 3163 3162 3161 3160 3159 3158 3157 3155 3154 3153 3151 3150 3151 3150 3149 3148 3147 3146 3145 3144 3145 3145
3185 3185 3185 3185 3185 3185 3185 3185 3185 3185 3184 3184 3184 3184 3183 3183 3183 3182 3182 3181 3181 3181 3180 3180 3180 3180 3180 3180 3180 3180 3179 3180 3180 3180 3179 3179 3179 3179 3178 3178 3178 3177 3177 3176 3176 3175 3175 3174 3173 3173 3172 3171 3171 3170 3170 3169 3168 3165 3164 3165 3165 3164 3163 3163 3162 3161 3161 3160 3159 3158 3156 3156 3155 3153 3150 3149 3149 3150 3149 3147 3146 3145 3144 3143 3142 3142 3142 3143
3183 3183 3183 3183 3183 3183 3183 3183 3183 3182 3182 3182 3182 3182 3181 3181 3181 3180 3180 3179 3179 3178 3178 3178 3178 3178 3178 3178 3178 3177 3177 3178 3179 3177 3177 3177 3177 3177 3177 3176 3176 3175 3175 3174 3174 3174 3173 3172 3172 3172 3170 3170 3169 3168 3168 3168 3166 3163 3163 3163 3162 3161 3161 3161 3159 3158 3158 3157 3157 3155 3154 3153 3153 3150 3146 3146 3148 3149 3147 3145 3143 3142 3141 3140 3140 3140 3140 3140
3181 3181 3181 3181 3181 3181 3181 3181 3181 3180 3180 3180 3180 3179 3179 3178 3178 3178 3177 3177 3176 3176 3176 3175 3175 3175 3175 3175 3175 3174 3176 3177 3176 3175 3175 3175 3175 3175 3175 3174 3174 3173 3173 3172 3172 3171 3171 3170 3170 3170 3168 3168 3167 3166 3166 3165 3163 3161 3161 3160 3159 3159 3159 3158 3156 3155 3155 3154 3153 3152 3151 3150 3150 3147 3142 3144 3147 3146 3144 3142 3141 3139 3138 3138 3138 3138 3138 3137
3179 3179 3179 3179 3179 3179 3179 3179 3178 3178 3178 3178 3177 3177 3176 3176 3176 3175 3174 3174 3173 3173 3173 3172 3172 3172 3172 3172 3171 3171 3174 3175 3173 3173 3173 3173 3173 3173 3173 3172 3172 3171 3171 3170 3170 3169 3169 3169 3168 3167 3166 3165 3165 3164 3163 3162 3161 3159 3158 3157 3157 3156 3156 3155 3153 3153 3153 3152 3151 3149 3147 3146 3147 3143 3139 3143 3145 3143 3141 3140 3138 3137 3136 3137 3136 3136 3135 3134
3177 3177 3177 3177 3177 3176 3177 3176 3176 3176 3176 3175 3175 3174 3174 3174 3173 3172 3172 3171 3171 3170 3169 3169 3169 3168 3168 3169 3167 3168 3172 3172 3170 3171 3170 3171 3171 3170 3170 3169 3169 3169 3168 3168 3167 3167 3167 3166 3165 3165 3164 3163 3162 3161 3160 3160 3158 3157 3155 3154 3154 3153 3153 3151 3149 3150 3150 3149 3148 3147 3144 3142 3142 3139 3137 3142 3142 3140 3139 3138 3136 3135 3135 3134 3133 3133 3132 3131
3174 3174 3174 3175 3174 3174 3174 3174 3174 3174 3173 3173 3172 3172 3172 3171 3170 3170 3169 3169 3168 3167 3167 3166 3166 3165 3165 3165 3165 3166 3168 3167 3167 3168 3168 3168 3168 3167 3167 3166 3166 3166 3165 3165 3164 3164 3164 3163 3162 3161 3161 3160 3160 3159 3157 3156 3155 3154 3152 3151 3151 3151 3149 3148 3147 3147 3147 3146 3146 3144 3139 3136 3137 3135 3135 3140 3139 3137 3136 3135 3134 3133 3132 3132 3130 3129 3129 3128
3171 3171 3171 3172 3172 3172 3172 3171 3171 3171 3171 3171 3170 3170 3169 3168 3168 3167 3166 3166 3165 3165 3164 3164 3163 3162 3161 3161 3163 3164 3163 3164 3164 3165 3165 3165 3165 3164 3164 3163 3163 3162 3162 3162 3161 3160 3160 3159 3158 3158 3158 3157 3157 3157 3155 3153 3152 3150 3150 3148 3147 3146 3145 3145 3145 3144 3144 3143 3143 3142 3134 3129 3131 3132 3134 3137 3135 3133 3132 3131 3131 3130 3128 3128 3127 3125 3125 3125
3168 3168 3168 3169 3169 3169 3169 3168 3169 3168 3168 3168 3167 3167 3166 3166 3165 3164 3164 3163 3163 3162 3161 3160 3159 3159 3157 3158 3161 3160 3160 3161 3162 3162 3162 3161 3161 3161 3161 3160 3159 3159 3159 3158 3157 3156 3156 3155 3154 3154 3154 3154 3154 3154 3151 3150 3149 3148 3146 3145 3144 3142 3140 3143 3142 3140 3140 3140 3139 3138 3129 3124 3126 3128 3131 3133 3131 3129 3127 3127 3126 3125 3124 3123 3122 3121 3120 3120
3165 3165 3166 3166 3166 3166 3165 3166 3166 3165 3165 3165 3164 3164 3163 3162 3162 3161 3161 3160 3160 3159 3158 3157 3156 3155 3153 3155 3158 3157 3157 3158 3159 3159 3158 3158 3158 3158 3157 3156 3156 3155 3155 3154 3154 3153 3152 3151 3150 3150 3151 3152 3153 3150 3146 3145 3146 3145 3141 3139 3140 3138 3136 3139 3140 3137 3136 3136 3135 3133 3125 3121 3121 3123 3127 3128 3126 3125 3123 3122 3121 3120 3120 3119 3118 3117 3115 3114
3163 3163 3163 3163 3163 3163 3163 3163 3162 3162 3162 3162 3162 3161 3160 3159 3159 3158 3157 3157 3156 3155 3154 3153 3153 3152 3149 3151 3154 3154 3155 3155 3155 3155 3155 3155 3155 3154 3153 3153 3152 3152 3151 3151 3150 3149 3148 3147 3146 3147 3148 3149 3150 3146 3142 3142 3142 3141 3136 3133 3135 3134 3132 3135 3137 3136 3133 3130 3129 3127 3121 3117 3117 3119 3122 3123 3121 3120 3117 3116 3116 3115 3115 3114 3113 3112 3110 3109
3160 3160 3161 3161 3161 3160 3160 3160 3160 3160 3159 3159 3159 3158 3157 3156 3155 3155 3154 3154 3153 3152 3151 3149 3150 3148 3146 3148 3150 3151 3151 3151 3151 3152 3152 3152 3151 3151 3150 3149 3149 3148 3147 3146 3146 3145 3144 3144 3143 3143 3145 3147 3147 3143 3140 3138 3136 3135 3133 3130 3130 3132 3131 3130 3133 3133 3130 3126 3123 3121 3115 3111 3112 3115 3117 3118 3117 3114 3111 3111 3111 3110 3109 3109 3109 3107 3105 3103
3158 3158 3158 3158 3158 3158 3158 3158 3157 3157 3157 3156 3155 3155 3154 3152 3152 3151 3151 3151 3150 3149 3146 3145 3147 3143 3142 3145 3146 3147 3148 3147 3147 3148 3149 3149 3148 3148 3147 3146 3145 3144 3143 3143 3142 3140 3140 3141 3139 3139 3141 3142 3142 3138 3135 3132 3131 3131 3132 3130 3128 3130 3129 3128 3128 3129 3128 3123 3118 3115 3109 3105 3107 3110 3111 3113 3113 3109 3106 3106 3105 3104 3104 3104 3104 3102 3100 3099
3155 3155 3155 3155 3155 3156 3155 3155 3155 3154 3155 3154 3153 3152 3150 3149 3148 3148 3147 3147 3146 3146 3143 3142 3142 3140 3138 3141 3143 3143 3144 3144 3144 3144 3145 3145 3144 3144 3143 3143 3141 3140 3139 3139 3138 3137 3138 3137 3134 3135 3136 3136 3137 3136 3132 3130 3132 3132 3131 3129 3127 3126 3124 3124 3125 3125 3126 3119 3112 3110 3104 3100 3102 3103 3105 3107 3108 3105 3101 3101 3099 3099 3100 3099 3098 3096 3095 3094
3152 3152 3152 3152 3153 3153 3152 3152 3152 3152 3152 3152 3151 3149 3147 3146 3145 3144 3143 3143 3143 3142 3140 3139 3138 3136 3135 3137 3140 3140 3140 3140 3139 3140 3141 3140 3140 3139 3139 3138 3136 3134 3135 3135 3134 3134 3135 3130 3127 3129 3130 3133 3136 3136 3132 3130 3131 3130 3128 3126 3124 3122 3118 3119 3121 3122 3125 3115 3103 3105 3101 3096 3097 3097 3099 3101 3102 3099 3096 3096 3095 3094 3095 3094 3093 3091 3090 3089
3149 3149 3149 3149 3150 3150 3149 3149 3149 3148 3148 3148 3148 3147 3145 3144 3142 3140 3138 3138 3139 3139 3136 3136 3134 3131 3132 3134 3135 3136 3135 3133 3133 3135 3136 3136 3136 3134 3133 3133 3130 3129 3131 3132 3131 3130 3127 3121 3121 3125 3128 3133 3134 3133 3131 3128 3128 3126 3124 3122 3119 3118 3113 3114 3117 3118 3122 3111 3097 3101 3096 3089 3092 3091 3092 3095 3094 3092 3092 3092 3090 3089 3090 3088 3087 3086 3084 3084
3146 3146 3146 3146 3146 3146 3146 3146 3146 3145 3145 3144 3145 3144 3142 3141 3139 3136 3133 3130 3133 3135 3132 3132 3130 3126 3128 3131 3131 3131 3129 3126 3127 3130 3132 3132 3131 3129 3128 3127 3125 3125 3127 3129 3128 3124 3119 3113 3118 3125 3127 3129 3128 3128 3128 3125 3124 3122 3121 3118 3113 3115 3111 3107 3111 3114 3117 3107 3094 3096 3090 3081 3085 3086 3085 3088 3087 3086 3088 3088 3086 3084 3084 3082 3082 3081 3079 3078
3142 3142 3143 3143 3143 3143 3143 3143 3143 3142 3142 3141 3141 3140 3139 3138 3136 3134 3130 3124 3124 3129 3129 3127 3125 3122 3124 3127 3126 3125 3121 3119 3122 3124 3127 3126 3124 3124 3123 3121 3121 3120 3121 3123 3123 3119 3112 3110 3118 3124 3124 3124 3123 3124 3125 3122 3120 3117 3117 3115 3109 3113 3111 3102 3104 3109 3110 3104 3095 3092 3083 3073 3078 3078 3077 3082 3081 3081 3083 3083 3082 3081 3079 3078 3077 3077 3075 3073
3138 3139 3140 3139 3139 3139 3140 3139 3139 3139 3139 3138 3138 3137 3136 3134 3133 3131 3128 3121 3115 3119 3124 3122 3119 3118 3120 3121 3119 3118 3114 3114 3116 3117 3121 3120 3119 3120 3118 3117 3117 3115 3115 3118 3118 3113 3107 3111 3118 3120 3119 3119 3118 3119 3121 3120 3116 3111 3112 3113 3107 3109 3109 3101 3102 3104 3101 3099 3095 3092 3075 3061 3068 3071 3069 3076 3077 3075 3079 3078 3077 3077 3075 3074 3071 3071 3070 3068
3134 3135 3136 3136 3136 3135 3136 3136 3136 3136 3136 3136 3135 3134 3133 3132 3131 3129 3125 3119 3109 3109 3115 3116 3114 3113 3115 3114 3113 3112 3109 3111 3112 3113 3115 3115 3116 3115 3113 3114 3112 3109 3110 3114 3113 3106 3103 3111 3115 3114 3114 3115 3114 3113 3117 3119 3112 3103 3105 3110 3107 3105 3106 3103 3103 3100 3094 3091 3092 3095 3077 3049 3054 3065 3063 3068 3072 3070 3073 3072 3070 3071 3070 3069 3067 3065 3066 3064
3130 3131 3132 3133 3133 3132 3133 3133 3133 3133 3132 3133 3132 3132 3131 3129 3129 3127 3124 3117 3106 3105 3108 3109 3109 3110 3110 3110 3109 3108 3107 3108 3109 3110 3111 3111 3112 3111 3109 3108 3108 3107 3107 3110 3108 3100 3099 3106 3110 3109 3109 3109 3109 3108 3112 3116 3109 3098 3100 3107 3106 3103 3102 3101 3102 3099 3092 3087 3086 3094 3088 3056 3043 3055 3061 3062 3064 3064 3067 3066 3064 3065 3064 3064 3063 3062 3062 3061
3126 3127 3128 3129 3130 3130 3130 3130 3130 3130 3130 3130 3129 3129 3128 3127 3127 3126 3124 3116 3104 3102 3106 3105 3106 3108 3108 3108 3107 3106 3105 3105 3107 3108 3108 3108 3107 3107 3105 3103 3104 3104 3105 3107 3103 3096 3097 3102 3104 3105 3105 3103 3103 3104 3106 3111 3106 3096 3097 3103 3102 3101 3100 3097 3098 3097 3090 3086 3081 3083 3091 3073 3042 3042 3056 3057 3056 3058 3059 3059 3058 3059 3059 3059 3059 3058 3058 3058
3122 3123 3124 3125 3126 3127 3126 3127 3127 3126 3127 3126 3126 3126 3125 3126 3126 3125 3126 3119 3103 3100 3104 3104 3104 3105 3105 3106 3105 3104 3103 3103 3105 3104 3105 3105 3103 3102 3101 3100 3101 3101 3102 3103 3096 3092 3097 3100 3099 3100 3101 3099 3098 3099 3102 3105 3102 3096 3097 3099 3098 3098 3097 3096 3095 3093 3090 3085 3076 3072 3084 3081 3046 3034 3050 3052 3050 3052 3051 3053 3054 3054 3055 3054 3054 3055 3055 3055
3119 3119 3120 3121 3122 3123 3123 3123 3122 3122 3122 3122 3122 3123 3123 3125 3124 3124 3127 3117 3100 3098 3102 3101 3102 3102 3102 3103 3102 3102 3102 3101 3101 3101 3102 3102 3100 3099 3098 3098 3100 3098 3098 3098 3091 3091 3097 3097 3095 3096 3096 3095 3094 3097 3098 3099 3096 3094 3096 3095 3094 3095 3092 3094 3092 3090 3092 3083 3071 3070 3079 3080 3051 3032 3044 3047 3045 3048 3046 3049 3051 3050 3051 3050 3051 3052 3051 3052
3115 3115 3116 3116 3117 3119 3119 3118 3118 3118 3118 3118 3119 3120 3120 3121 3122 3124 3122 3108 3097 3099 3100 3099 3100 3100 3100 3100 3100 3100 3100 3099 3099 3099 3099 3099 3098 3097 3096 3096 3097 3095 3095 3094 3089 3090 3094 3093 3091 3091 3092 3091 3092 3094 3094 3094 3093 3093 3094 3091 3092 3092 3089 3091 3088 3088 3092 3077 3065 3068 3074 3079 3058 3034 3039 3044 3043 3046 3045 3047 3048 3048 3049 3048 3048 3049 3048 3048
3111 3111 3111 3111 3112 3113 3114 3115 3115 3114 3115 3115 3115 3116 3117 3117 3119 3120 3110 3098 3098 3099 3097 3097 3098 3097 3098 3098 3098 3099 3098 3098 3098 3098 3097 3097 3095 3094 3094 3094 3094 3093 3091 3090 3088 3088 3089 3087 3087 3087 3088 3088 3090 3091 3089 3090 3091 3090 3091 3089 3089 3088 3086 3087 3084 3086 3088 3071 3061 3065 3069 3073 3055 3033 3038 3041 3041 3046 3045 3045 3046 3046 3047 3046 3046 3046 3045 3045
3107 3106 3106 3106 3106 3108 3109 3111 3111 3111 3112 3111 3111 3112 3113 3115 3113 3106 3098 3098 3101 3097 3095 3097 3095 3095 3096 3096 3096 3097 3096 3097 3097 3097 3096 3094 3093 3092 3092 3092 3092 3092 3089 3087 3086 3085 3083 3083 3085 3084 3084 3087 3087 3086 3085 3085 3087 3087 3087 3087 3088 3088 3087 3084 3082 3083 3080 3065 3058 3062 3066 3061 3040 3029 3038 3040 3040 3044 3043 3043 3044 3044 3044 3043 3043 3042 3041 3041
3102 3102 3102 3101 3102 3102 3104 3107 3108 3108 3108 3108 3108 3108 3109 3110 3102 3092 3093 3099 3100 3095 3094 3094 3093 3094 3093 3092 3093 3094 3094 3094 3094 3095 3093 3092 3090 3089 3090 3090 3091 3090 3087 3086 3085 3082 3078 3077 3080 3080 3080 3083 3083 3082 3082 3080 3082 3082 3080 3082 3085 3087 3085 3082 3081 3079 3071 3059 3055 3061 3063 3050 3031 3029 3036 3036 3039 3041 3039 3041 3040 3040 3040 3039 3039 3038 3037 3037
3098 3098 3097 3097 3097 3097 3099 3102 3103 3104 3104 3104 3105 3105 3105 3101 3092 3087 3090 3093 3094 3094 3093 3091 3090 3090 3089 3088 3089 3090 3091 3091 3091 3092 3090 3089 3087 3086 3087 3087 3088 3088 3086 3085 3083 3080 3077 3073 3072 3075 3078 3080 3079 3079 3080 3079 3078 3076 3075 3076 3077 3076 3075 3075 3075 3070 3062 3055 3055 3058 3054 3039 3029 3031 3033 3034 3037 3037 3036 3037 3036 3036 3036 3035 3035 3034 3033 3033
3093 3093 3094 3093 3093 3093 3095 3097 3098 3099 3100 3100 3100 3100 3098 3091 3086 3086 3088 3088 3089 3090 3089 3088 3087 3086 3084 3084 3085 3085 3087 3086 3087 3088 3086 3086 3085 3083 3084 3084 3085 3086 3084 3082 3080 3079 3076 3071 3069 3072 3075 3076 3075 3076 3078 3077 3074 3071 3071 3072 3069 3066 3067 3067 3065 3061 3058 3057 3054 3050 3042 3031 3029 3030 3031 3033 3034 3034 3035 3034 3033 3033 3031 3030 3029 3028 3029 3029
3087 3088 3088 3088 3088 3089 3091 3091 3093 3094 3094 3096 3095 3093 3089 3085 3084 3084 3085 3085 3086 3085 3085 3085 3085 3083 3080 3080 3080 3081 3081 3081 3082 3082 3082 3082 3081 3080 3080 3080 3082 3082 3081 3079 3078 3077 3073 3069 3070 3071 3070 3072 3072 3072 3075 3074 3071 3069 3067 3064 3063 3064 3065 3063 3060 3058 3059 3055 3049 3043 3034 3028 3030 3027 3027 3032 3031 3030 3031 3030 3030 3030 3027 3025 3023 3022 3024 3025
3081 3081 3082 3082 3083 3085 3086 3086 3088 3088 3088 3089 3088 3084 3082 3080 3081 3082 3082 3082 3082 3082 3083 3082 3081 3079 3077 3076 3077 3077 3077 3077 3078 3077 3077 3078 3078 3077 3076 3077 3079 3078 3078 3077 3074 3075 3071 3065 3067 3068 3064 3066 3068 3068 3069 3070 3067 3065 3062 3061 3061 3062 3061 3060 3058 3056 3057 3051 3043 3039 3031 3027 3030 3027 3025 3029 3029 3027 3027 3026 3027 3027 3024 3022 3020 3020 3021 3021
3075 3076 3075 3077 3079 3080 3081 3082 3083 3082 3083 3082 3079 3076 3075 3075 3076 3078 3079 3079 3079 3080 3080 3078 3076 3075 3075 3074 3074 3074 3074 3074 3074 3073 3073 3072 3072 3072 3072 3074 3075 3074 3074 3074 3070 3071 3069 3062 3062 3064 3061 3061 3064 3064 3061 3061 3061 3059 3058 3059 3059 3056 3054 3055 3054 3051 3051 3045 3037 3035 3030 3025 3027 3025 3024 3027 3026 3024 3023 3023 3024 3023 3021 3020 3019 3019 3019 3018
3071 3070 3069 3072 3075 3076 3077 3078 3078 3078 3078 3074 3070 3069 3068 3069 3070 3073 3074 3075 3076 3076 3074 3073 3073 3072 3071 3070 3069 3070 3070 3068 3069 3070 3069 3067 3066 3066 3068 3069 3070 3069 3070 3070 3067 3066 3066 3061 3057 3059 3060 3057 3058 3058 3055 3054 3056 3055 3055 3055 3054 3051 3048 3047 3045 3043 3043 3038 3033 3032 3029 3024 3023 3023 3024 3024 3022 3020 3019 3020 3021 3021 3020 3019 3019 3018 3017 3017
3066 3065 3064 3068 3070 3071 3073 3073 3072 3072 3069 3065 3064 3063 3063 3064 3065 3067 3068 3069 3070 3070 3069 3068 3069 3068 3067 3066 3065 3066 3065 3063 3063 3064 3063 3062 3061 3062 3064 3065 3065 3066 3066 3066 3065 3062 3062 3058 3054 3055 3057 3054 3051 3052 3051 3051 3053 3052 3051 3050 3048 3046 3045 3042 3039 3038 3037 3034 3030 3029 3024 3022 3023 3023 3021 3019 3016 3016 3016 3016 3018 3018 3018 3019 3018 3018 3017 3017
3062 3060 3059 3064 3065 3066 3069 3068 3066 3066 3062 3059 3059 3058 3059 3060 3061 3062 3063 3063 3064 3064 3065 3064 3064 3063 3062 3062 3062 3062 3061 3058 3058 3058 3055 3055 3056 3056 3058 3060 3061 3062 3061 3061 3061 3060 3058 3055 3052 3051 3051 3047 3045 3047 3049 3049 3049 3048 3047 3046 3045 3044 3042 3040 3035 3033 3032 3029 3026 3025 3020 3019 3022 3020 3015 3013 3011 3010 3013 3014 3014 3015 3016 3016 3016 3016 3016 3016
3056 3054 3055 3060 3061 3062 3063 3061 3060 3060 3056 3054 3055 3054 3055 3056 3057 3058 3058 3058 3058 3058 3059 3058 3058 3058 3058 3058 3058 3058 3057 3053 3052 3052 3049 3049 3051 3051 3053 3055 3056 3056 3056 3054 3054 3055 3054 3050 3047 3045 3044 3042 3042 3044 3045 3044 3044 3044 3042 3042 3042 3041 3038 3035 3029 3027 3027 3024 3022 3021 3015 3013 3018 3015 3008 3007 3007 3007 3010 3010 3009 3010 3011 3012 3012 3013 3012 3012
3049 3049 3052 3055 3056 3057 3057 3054 3054 3053 3050 3050 3051 3051 3052 3052 3053 3054 3054 3053 3052 3052 3052 3051 3051 3052 3052 3054 3054 3053 3053 3049 3046 3047 3046 3044 3045 3046 3049 3051 3051 3051 3051 3048 3047 3048 3047 3044 3041 3038 3037 3037 3038 3039 3039 3039 3040 3037 3035 3037 3038 3035 3033 3030 3026 3025 3023 3019 3019 3017 3007 3004 3010 3009 3005 3004 3003 3002 3003 3003 3002 3004 3005 3006 3007 3007 3007 3007
3044 3045 3047 3049 3051 3052 3050 3047 3047 3046 3045 3047 3048 3047 3048 3048 3048 3049 3049 3048 3047 3047 3046 3045 3046 3046 3047 3049 3048 3048 3048 3045 3040 3041 3042 3040 3040 3041 3044 3046 3046 3047 3046 3044 3043 3042 3039 3036 3035 3033 3032 3031 3032 3033 3032 3032 3031 3028 3027 3031 3031 3029 3030 3027 3024 3022 3016 3013 3016 3008 2994 2993 3002 3003 3002 3001 2998 2996 2995 2995 2996 2997 2997 2998 3000 3001 3002 3003
3039 3039 3041 3042 3043 3044 3042 3042 3044 3042 3042 3043 3042 3042 3043 3042 3042 3044 3044 3043 3043 3043 3041 3040 3041 3041 3041 3042 3042 3041 3042 3041 3037 3037 3037 3036 3035 3036 3039 3040 3041 3042 3041 3041 3040 3037 3032 3029 3029 3028 3026 3024 3023 3023 3023 3024 3023 3021 3021 3024 3023 3024 3025 3022 3021 3017 3008 3006 3007 2998 2987 2988 2995 2997 2997 2996 2993 2989 2987 2986 2989 2992 2990 2990 2991 2992 2995 2996
3034 3034 3035 3036 3036 3036 3034 3036 3038 3037 3037 3038 3037 3037 3037 3035 3035 3038 3037 3037 3037 3037 3036 3035 3037 3037 3035 3036 3035 3034 3036 3036 3034 3032 3031 3031 3031 3032 3034 3036 3036 3036 3036 3037 3037 3033 3025 3022 3023 3021 3017 3016 3014 3014 3017 3019 3017 3014 3015 3016 3016 3017 3018 3017 3014 3007 3003 3001 2995 2991 2989 2986 2988 2993 2992 2988 2986 2983 2980 2979 2982 2985 2984 2983 2983 2983 2985 2986
3029 3029 3031 3031 3030 3030 3029 3029 3030 3030 3031 3033 3031 3031 3032 3030 3031 3032 3031 3030 3030 3031 3030 3029 3030 3031 3029 3030 3030 3029 3030 3030 3029 3027 3026 3027 3027 3027 3028 3029 3029 3029 3030 3031 3032 3029 3021 3015 3016 3014 3009 3009 3009 3008 3011 3013 3009 3009 3009 3008 3009 3010 3011 3011 3004 2999 3002 2996 2983 2985 2990 2982 2981 2988 2986 2981 2981 2978 2976 2975 2976 2977 2978 2977 2977 2976 2976 2977
3025 3025 3027 3026 3025 3024 3024 3024 3024 3025 3026 3028 3026 3026 3027 3026 3026 3026 3026 3026 3026 3026 3024 3022 3024 3025 3024 3025 3025 3024 3024 3024 3022 3022 3022 3022 3022 3021 3020 3021 3022 3023 3024 3023 3024 3023 3015 3007 3008 3007 3001 3002 3004 3003 3004 3004 3001 3002 3003 3002 3003 3003 3002 3000 2995 2994 2997 2988 2975 2979 2984 2976 2975 2981 2980 2977 2976 2973 2971 2972 2972 2972 2971 2970 2971 2971 2970 2970
3020 3020 3022 3021 3019 3020 3020 3020 3020 3021 3022 3023 3022 3021 3021 3021 3020 3021 3022 3022 3020 3020 3020 3018 3019 3020 3019 3020 3019 3018 3019 3018 3016 3017 3017 3016 3016 3016 3014 3014 3016 3017 3017 3016 3016 3016 3008 3001 3002 3002 2996 2995 2998 2997 2997 2997 2994 2994 2994 2995 2995 2995 2993 2990 2987 2987 2987 2978 2971 2975 2974 2968 2970 2973 2971 2970 2969 2968 2968 2968 2967 2966 2965 2965 2966 2965 2963 2961
3015 3015 3016 3015 3014 3016 3016 3015 3016 3015 3015 3017 3016 3015 3016 3016 3016 3017 3018 3017 3016 3015 3016 3015 3014 3014 3014 3014 3013 3012 3013 3012 3010 3011 3012 3011 3011 3012 3010 3009 3011 3011 3011 3010 3009 3009 3005 2998 2999 2998 2991 2989 2991 2991 2990 2989 2987 2985 2985 2987 2988 2987 2983 2981 2979 2979 2977 2970 2967 2968 2962 2958 2963 2966 2963 2962 2963 2964 2964 2963 2962 2962 2961 2960 2956 2953 2952 2951
3009 3009 3010 3009 3009 3011 3012 3011 3011 3010 3009 3010 3010 3009 3012 3012 3011 3012 3011 3011 3012 3011 3011 3010 3008 3009 3009 3008 3008 3007 3007 3006 3005 3005 3007 3005 3005 3007 3006 3005 3007 3006 3005 3005 3004 3003 3001 2995 2995 2996 2987 2983 2987 2986 2983 2983 2981 2978 2977 2979 2979 2975 2971 2970 2970 2970 2967 2962 2959 2958 2955 2953 2957 2958 2955 2956 2958 2959 2960 2960 2957 2954 2952 2949 2945 2943 2943 2942
3003 3003 3004 3004 3003 3005 3006 3004 3006 3005 3003 3004 3005 3004 3006 3006 3006 3006 3005 3006 3007 3006 3005 3004 3003 3003 3003 3003 3004 3003 3001 3000 3000 3000 3001 2999 3000 3001 3000 3000 3002 3001 2999 3000 2998 2997 2997 2992 2992 2992 2983 2978 2983 2982 2979 2979 2973 2966 2967 2969 2967 2963 2961 2962 2961 2960 2962 2960 2955 2953 2951 2949 2947 2945 2945 2948 2950 2952 2954 2950 2944 2942 2942 2942 2938 2935 2934 2934